Location: Unspecified
(0.0000°N, 0.0000°E)
Time: 21:14:54
(UTC+00:00)

ISS - Visible Passes

Search period start: 23 July 2016 00:00
Search period end: 02 August 2016 00:00
Orbit: 401 x 404 km, 51.6° (Epoch: 23 July)

Date Brightness Start Highest point End Pass type
(mag) Time Alt. Az. Time Alt. Az. Time Alt. Az.
23 Jul -1.3 18:36:38 10° SSE 18:38:02 12° SE 18:39:26 10° E visible
23 Jul -0.1 20:11:51 10° WSW 20:12:25 13° W 20:12:25 13° W visible
24 Jul -2.7 19:18:13 10° SW 19:21:25 55° NW 19:24:35 10° NNE visible
26 Jul 0.0 19:09:59 10° W 19:11:55 15° NW 19:13:50 10° NNW visible
29 Jul -1.5 04:56:44 10° NNW 04:59:42 34° NE 05:02:41 10° ESE visible
30 Jul 0.0 04:05:16 10° NNE 04:06:49 13° NE 04:08:23 10° E visible
30 Jul -1.8 05:40:44 10° W 05:43:03 18° SW 05:45:24 10° S visible
31 Jul -2.9 04:50:45 44° SSW 04:50:45 44° SSW 04:53:22 10° SSE visible
